TimeMDT,TemperatureF,Dew PointF,Humidity,Sea Level PressureIn,VisibilityMPH,Wind Direction,Wind SpeedMPH,Gust SpeedMPH,PrecipitationIn,Events,Conditions,WindDirDegrees,DateUTC
12:15 AM,35.6,15.8,44,30.21,10.0,SE,4.6,-,N/A,,Clear,130,2012-10-28 06:15:00
12:35 AM,35.6,15.8,44,30.21,10.0,SE,5.8,-,N/A,,Clear,140,2012-10-28 06:35:00
12:55 AM,33.8,15.8,48,30.21,10.0,SE,5.8,-,N/A,,Clear,140,2012-10-28 06:55:00
1:15 AM,32.0,15.8,51,30.21,10.0,ESE,5.8,-,N/A,,Clear,120,2012-10-28 07:15:00
1:35 AM,32.0,15.8,51,30.22,10.0,East,5.8,-,N/A,,Clear,100,2012-10-28 07:35:00
1:55 AM,32.0,15.8,51,30.21,10.0,ENE,5.8,-,N/A,,Clear,70,2012-10-28 07:55:00
2:15 AM,32.0,15.8,51,30.21,10.0,ENE,4.6,-,N/A,,Clear,70,2012-10-28 08:15:00
2:35 AM,32.0,15.8,51,30.22,10.0,ENE,4.6,-,N/A,,Clear,60,2012-10-28 08:35:00
2:55 AM,32.0,17.6,55,30.21,10.0,ENE,6.9,-,N/A,,Clear,70,2012-10-28 08:55:00
3:15 AM,32.0,17.6,55,30.21,10.0,East,4.6,-,N/A,,Clear,100,2012-10-28 09:15:00
3:35 AM,32.0,17.6,55,30.20,10.0,ESE,5.8,-,N/A,,Clear,110,2012-10-28 09:35:00
3:55 AM,32.0,17.6,55,30.20,10.0,East,5.8,-,N/A,,Clear,90,2012-10-28 09:55:00
4:15 AM,32.0,17.6,55,30.20,10.0,East,4.6,-,N/A,,Clear,80,2012-10-28 10:15:00
4:35 AM,32.0,17.6,55,30.21,10.0,East,3.5,-,N/A,,Clear,100,2012-10-28 10:35:00
4:55 AM,32.0,19.4,60,30.21,10.0,Calm,Calm,-,N/A,,Clear,0,2012-10-28 10:55:00
5:50 AM,32.0,17.6,55,30.22,10.0,Calm,Calm,-,N/A,,Clear,0,2012-10-28 11:50:00
6:50 AM,32.0,17.6,55,30.23,10.0,Calm,Calm,-,N/A,,Clear,0,2012-10-28 12:50:00
7:50 AM,37.4,21.2,52,30.25,10.0,Calm,Calm,-,N/A,,Clear,0,2012-10-28 13:50:00
8:50 AM,42.8,23.0,46,30.26,10.0,ESE,8.1,-,N/A,,Clear,120,2012-10-28 14:50:00
9:50 AM,48.2,21.2,34,30.25,10.0,SE,12.7,-,N/A,,Clear,130,2012-10-28 15:50:00
10:50 AM,53.6,21.2,28,30.24,10.0,SE,9.2,-,N/A,,Clear,140,2012-10-28 16:50:00
12:50 PM,59.0,24.8,27,30.21,10.0,SE,9.2,-,N/A,,Clear,130,2012-10-28 18:50:00
1:50 PM,62.6,26.6,26,30.17,10.0,SE,8.1,20.7,N/A,,Clear,140,2012-10-28 19:50:00
2:50 PM,62.6,26.6,26,30.14,10.0,SE,9.2,-,N/A,,Clear,130,2012-10-28 20:50:00
3:50 PM,62.6,26.6,26,30.13,10.0,SE,9.2,-,N/A,,Clear,140,2012-10-28 21:50:00
4:50 PM,60.8,26.6,27,30.12,10.0,SE,9.2,-,N/A,,Clear,140,2012-10-28 22:50:00
5:45 PM,59.0,26.6,29,30.12,10.0,SE,8.1,-,N/A,,Clear,140,2012-10-28 23:45:00
6:15 PM,55.4,26.6,33,30.14,10.0,SSE,5.8,-,N/A,,Clear,150,2012-10-29 00:15:00
6:35 PM,53.6,26.6,35,30.13,10.0,SE,8.1,-,N/A,,Clear,140,2012-10-29 00:35:00
6:55 PM,50.0,26.6,40,30.14,10.0,SE,8.1,-,N/A,,Clear,140,2012-10-29 00:55:00
7:15 PM,50.0,26.6,40,30.14,10.0,SE,8.1,-,N/A,,Clear,140,2012-10-29 01:15:00
7:55 PM,46.4,26.6,46,30.15,10.0,East,6.9,-,N/A,,Clear,100,2012-10-29 01:55:00
8:15 PM,46.4,26.6,46,30.16,10.0,East,6.9,-,N/A,,Clear,100,2012-10-29 02:15:00
8:35 PM,46.4,26.6,46,30.16,10.0,ESE,5.8,-,N/A,,Clear,110,2012-10-29 02:35:00
8:55 PM,44.6,26.6,49,30.16,10.0,East,6.9,-,N/A,,Clear,100,2012-10-29 02:55:00
9:15 PM,44.6,26.6,49,30.17,10.0,ESE,5.8,-,N/A,,Clear,120,2012-10-29 03:15:00
9:35 PM,44.6,26.6,49,30.18,10.0,ESE,5.8,-,N/A,,Clear,120,2012-10-29 03:35:00
9:55 PM,44.6,28.4,53,30.18,10.0,ESE,6.9,-,N/A,,Clear,120,2012-10-29 03:55:00
10:15 PM,44.6,28.4,53,30.18,10.0,ESE,6.9,-,N/A,,Clear,120,2012-10-29 04:15:00
10:55 PM,42.8,28.4,57,30.17,10.0,SSE,5.8,-,N/A,,Clear,150,2012-10-29 04:55:00
11:15 PM,44.6,28.4,53,30.18,10.0,South,3.5,-,N/A,,Clear,170,2012-10-29 05:15:00
11:35 PM,44.6,28.4,53,30.19,10.0,SE,3.5,-,N/A,,Clear,130,2012-10-29 05:35:00
11:55 PM,42.8,28.4,57,30.19,10.0,Calm,Calm,-,N/A,,Clear,0,2012-10-29 05:55:00